Le nostre stazioni meteo in Italia

Pubblicità
Il mio iltempo24.it
Palermo/Punta Raisi, Italia (16405): Temperatura & dewpoint: 14.01.2018 06:00:00 - 20.01.2018 06:00:00 (CET)Palermo/Punta Raisi, Italia (16405): velocità del vento: 14.01.2018 06:00:00 - 20.01.2018 06:00:00 (CET)Palermo/Punta Raisi, Italia (16405): direzione del vento: 14.01.2018 06:00:00 - 20.01.2018 06:00:00 (CET)Palermo/Punta Raisi, Italia (16405): reduced air pressure: 14.01.2018 06:00:00 - 20.01.2018 06:00:00 (CET)Palermo/Punta Raisi, Italia (16405): visibility: 14.01.2018 06:00:00 - 20.01.2018 06:00:00 (CET)Palermo/Punta Raisi, Italia (16405): precipitazioni: 14.01.2018 06:00:00 - 20.01.2018 06:00:00 (CET)
Data & Tempo tt [°C] td [°C] ff [km/h] ff [kn] dd ppp [hPa] vv [km] rr [mm]
20.01.2018 06:00:00 - - - - - - - -
20.01.2018 05:00:00 12,0 7,0 15 8 S - 10 -
20.01.2018 04:00:00 12,6 6,7 15 8 S 1013,8 10 0,0
20.01.2018 03:00:00 13,0 8,0 22 12 S - 10 -
20.01.2018 02:00:00 13,0 8,0 28 15 S - 10 -
20.01.2018 01:00:00 13,4 7,7 26 14 S 1015,0 10 -
20.01.2018 00:00:00 14,0 8,0 31 17 S - 10 -
19.01.2018 23:00:00 13,0 7,0 26 14 S - 10 -
19.01.2018 22:00:00 13,2 7,1 22 12 S 1015,1 10 0,0
19.01.2018 21:00:00 13,0 7,0 16 9 S - 10 -
19.01.2018 20:00:00 13,0 8,0 28 15 S - 10 -
19.01.2018 19:00:00 13,3 7,6 18 10 S 1015,8 10 -
19.01.2018 18:00:00 14,0 7,0 18 10 S - 10 -
19.01.2018 17:00:00 14,0 8,0 24 13 SSO - 10 -
19.01.2018 16:00:00 14,9 7,9 24 13 SSO 1015,0 10 0,0
19.01.2018 15:00:00 16,0 8,0 29 16 SSO - 10 -
19.01.2018 14:00:00 16,0 8,0 31 17 SSO - 10 -
19.01.2018 13:00:00 15,8 7,5 29 16 SSO 1015,9 10 -
19.01.2018 12:00:00 15,0 8,0 31 17 S - 10 -
19.01.2018 11:00:00 15,0 6,0 24 13 S - 10 -
19.01.2018 10:00:00 14,6 7,4 24 13 S 1018,2 - 0,0
19.01.2018 09:00:00 13,0 7,0 24 13 S - 10 -
19.01.2018 08:00:00 12,0 7,0 22 12 S - 10 -
19.01.2018 07:00:00 12,4 6,5 29 16 S 1017,8 10 -
19.01.2018 06:00:00 13,0 7,0 39 21 S - 10 -
19.01.2018 05:00:00 12,0 6,0 29 16 S - 10 -
19.01.2018 04:00:00 12,1 6,5 18 10 S 1019,2 10 0,0
19.01.2018 03:00:00 12,0 6,0 21 11 S - 10 -
19.01.2018 02:00:00 12,0 6,0 21 11 S - 10 -
19.01.2018 01:00:00 11,0 5,4 21 11 S 1020,7 10 -
19.01.2018 00:00:00 11,0 5,0 18 10 S - 10 -
18.01.2018 23:00:00 11,0 5,0 16 9 S - 10 -
18.01.2018 22:00:00 11,4 5,3 16 9 S 1021,6 10 0,0
18.01.2018 21:00:00 11,0 5,0 13 7 S - 10 -
18.01.2018 20:00:00 11,0 5,0 15 8 S - 10 -
18.01.2018 19:00:00 11,1 5,3 15 8 S 1022,4 10 -
18.01.2018 18:00:00 13,0 6,0 13 7 OSO - 10 -
18.01.2018 17:00:00 14,0 6,0 22 12 O - 10 -
18.01.2018 16:00:00 13,6 6,0 18 10 O 1023,0 10 0,0
18.01.2018 15:00:00 14,0 6,0 16 9 O - 10 -
18.01.2018 14:00:00 14,0 4,0 11 6 O - 10 -
18.01.2018 13:00:00 13,9 4,9 9 5 NO 1023,1 10 -
18.01.2018 12:00:00 14,0 6,0 11 6 NO - 10 -
18.01.2018 11:00:00 14,0 6,0 16 9 NNO - 10 -
18.01.2018 10:00:00 13,9 5,2 13 7 NNO 1024,0 10 0,0
18.01.2018 09:00:00 14,0 6,0 11 6 N - 10 -
18.01.2018 08:00:00 13,0 6,0 21 11 N - 10 -
18.01.2018 07:00:00 13,5 5,0 22 12 N 1021,7 10 -
18.01.2018 06:00:00 14,0 5,0 24 13 N - 10 -
18.01.2018 05:00:00 - - - - - - - -
18.01.2018 04:00:00 13,6 5,6 28 15 NNO 1020,3 10 0,0
18.01.2018 03:00:00 14,0 7,0 34 18 NNO - 10 -
18.01.2018 02:00:00 14,0 7,0 28 15 NNO - 10 -
18.01.2018 01:00:00 13,5 7,4 37 20 NNO 1019,4 10 -
18.01.2018 00:00:00 14,0 8,0 37 20 NNO - 10 -
17.01.2018 23:00:00 14,0 8,0 37 20 NNO - 10 -
17.01.2018 22:00:00 13,9 7,2 34 18 NNO 1017,9 10 0,0
17.01.2018 21:00:00 14,0 8,0 37 20 NNO - 10 -
17.01.2018 20:00:00 15,0 10,0 35 19 O - 10 -
17.01.2018 19:00:00 15,1 10,5 39 21 O 1014,4 10 -
17.01.2018 18:00:00 15,0 11,0 41 22 O - 10 -
17.01.2018 17:00:00 15,0 11,0 41 22 O - 10 -
17.01.2018 16:00:00 15,3 11,7 44 24 O 1013,2 10 0,0
17.01.2018 15:00:00 15,0 12,0 41 22 O - 10 -
17.01.2018 14:00:00 16,0 12,0 42 23 O - 10 -
17.01.2018 13:00:00 15,6 11,2 37 20 OSO 1013,4 10 -
17.01.2018 12:00:00 15,0 11,0 41 22 O - 10 -
17.01.2018 11:00:00 15,0 11,0 41 22 OSO - 10 -
17.01.2018 10:00:00 15,2 10,4 39 21 OSO 1015,8 10 0,0
17.01.2018 09:00:00 15,0 10,0 37 20 OSO - 10 -
17.01.2018 08:00:00 14,0 10,0 37 20 SO - 10 -
17.01.2018 07:00:00 14,5 9,8 41 22 OSO 1015,3 10 -
17.01.2018 06:00:00 14,0 10,0 41 22 SO - 10 -
17.01.2018 05:00:00 14,0 10,0 35 19 SO - 10 -
17.01.2018 04:00:00 14,4 9,6 35 19 SSO 1017,2 10 0,0
17.01.2018 03:00:00 14,0 9,0 34 18 SO - 10 -
17.01.2018 02:00:00 14,0 10,0 34 18 SO - 10 -
17.01.2018 01:00:00 14,4 10,3 37 20 SO 1019,1 10 -
17.01.2018 00:00:00 14,0 10,0 35 19 SO - 10 -
16.01.2018 23:00:00 14,0 10,0 34 18 SO - 10 -
16.01.2018 22:00:00 14,5 9,7 31 17 SO 1020,3 10 0,0
16.01.2018 21:00:00 15,0 11,0 31 17 OSO - 10 -
16.01.2018 20:00:00 15,0 10,0 35 19 OSO - 10 -
16.01.2018 19:00:00 14,7 9,8 31 17 OSO 1021,1 10 -
16.01.2018 18:00:00 15,0 10,0 39 21 OSO - 10 -
16.01.2018 17:00:00 15,0 10,0 41 22 OSO - 10 -
16.01.2018 16:00:00 15,0 10,1 44 24 O 1021,5 10 0,0
16.01.2018 15:00:00 15,0 11,0 34 18 OSO - 10 -
16.01.2018 14:00:00 15,0 9,0 31 17 OSO - 10 -
16.01.2018 13:00:00 14,8 9,7 29 16 OSO 1022,8 10 -
16.01.2018 12:00:00 15,0 9,0 28 15 OSO - 10 -
16.01.2018 11:00:00 14,0 9,0 34 18 OSO - 10 -
16.01.2018 10:00:00 14,2 8,2 35 19 O 1024,6 10 0,0
16.01.2018 09:00:00 14,0 8,0 41 22 O - 10 -
16.01.2018 08:00:00 13,0 8,0 26 14 SO - 10 -
16.01.2018 07:00:00 13,6 8,3 35 19 O 1022,8 10 -
16.01.2018 06:00:00 13,0 8,0 22 12 SO - 10 -
16.01.2018 05:00:00 - - - - - - - -
16.01.2018 04:00:00 13,0 7,9 22 12 SSO 1023,8 10 0,0
16.01.2018 03:00:00 13,0 7,0 24 13 SSO - 10 -
16.01.2018 02:00:00 13,0 7,0 22 12 SSO - 10 -
16.01.2018 01:00:00 12,1 7,2 21 11 SSO 1024,5 10 -
16.01.2018 00:00:00 12,0 8,0 21 11 SSO - 10 -
15.01.2018 23:00:00 12,0 8,0 21 11 SSO - 10 -
15.01.2018 22:00:00 12,5 8,1 16 9 SSO 1024,4 10 0,0
15.01.2018 21:00:00 13,0 9,0 15 8 SSO - 10 -
15.01.2018 20:00:00 13,0 9,0 13 7 S - 10 -
15.01.2018 19:00:00 12,6 8,2 11 6 SSO 1023,6 10 -
15.01.2018 18:00:00 13,0 11,0 16 9 SSO - 10 -
15.01.2018 17:00:00 15,0 9,0 15 8 SSO - 10 -
15.01.2018 16:00:00 14,3 9,0 13 7 SSO 1022,7 10 0,0
15.01.2018 15:00:00 16,0 9,0 18 10 SSO - 10 -
15.01.2018 14:00:00 15,0 8,0 16 9 SSO - 10 -
15.01.2018 13:00:00 15,1 7,6 18 10 SSO 1023,2 10 -
15.01.2018 12:00:00 14,0 7,0 21 11 SSO - 10 -
15.01.2018 11:00:00 14,0 8,0 15 8 SSO - 10 -
15.01.2018 10:00:00 13,6 6,9 18 10 SSO 1023,7 10 0,0
15.01.2018 09:00:00 13,0 6,0 13 7 S - 10 -
15.01.2018 08:00:00 12,0 6,0 13 7 S - 10 -
15.01.2018 07:00:00 11,8 6,1 13 7 S 1022,2 10 -
15.01.2018 06:00:00 12,0 6,0 13 7 S - 10 -
15.01.2018 05:00:00 11,0 5,0 9 5 SSO - 10 -
15.01.2018 04:00:00 12,5 5,5 11 6 S 1022,2 - 0,0
15.01.2018 03:00:00 12,0 5,0 13 7 SSE - 10 -
15.01.2018 02:00:00 12,0 5,0 13 7 S - 10 -
15.01.2018 01:00:00 11,5 6,2 9 5 S 1022,6 10 -
15.01.2018 00:00:00 13,0 6,0 11 6 S - 10 -
14.01.2018 23:00:00 12,0 5,0 13 7 S - 10 -
14.01.2018 22:00:00 13,1 5,8 24 13 S 1022,0 10 0,0
14.01.2018 21:00:00 12,0 5,0 13 7 S - 10 -
14.01.2018 20:00:00 13,0 6,0 9 5 SSE - 10 -
14.01.2018 19:00:00 13,3 6,2 15 8 S 1021,7 10 -
14.01.2018 18:00:00 14,0 7,0 21 11 S - 10 -
14.01.2018 17:00:00 14,0 7,0 18 10 SSO - 10 -
14.01.2018 16:00:00 14,9 7,0 18 10 S 1020,4 10 0,0
14.01.2018 15:00:00 16,0 6,0 28 15 SSO - 10 -
14.01.2018 14:00:00 15,0 7,0 22 12 SSO - 10 -
14.01.2018 13:00:00 14,8 6,6 22 12 SSO 1020,6 10 -
14.01.2018 12:00:00 15,0 7,0 24 13 SSO - 10 -
14.01.2018 11:00:00 14,0 9,0 26 14 SSO - 10 -
14.01.2018 10:00:00 13,0 12,1 24 13 SSO 1021,3 10 0,0
14.01.2018 09:00:00 12,0 6,0 13 7 S - 10 -
14.01.2018 08:00:00 11,0 5,0 11 6 S - 10 -
14.01.2018 07:00:00 10,1 5,5 11 6 S 1020,1 10 -
14.01.2018 06:00:00 10,0 6,0 13 7 SSE - 10 -

tt = Temperatura
td = dewpoint
ff = velocità del vento
dd = direzione del vento
ppp = reduced air pressure
vv = visibility
rr = precipitazioni

Stazioni seguenti

WeatherPro
AMSI
MeteoEarth